Starlink 6315

operational
NORAD ID: 57236 Int'l Des: 2023-094 Owner: SPXS Country: US Constellation: starlink
LEOCIRCULAR

About Starlink 6315

Description loading...

Live Position

Loading 3D Globe...

Upcoming Passes

Altitude History

Altitude vs Time

uPlot chart will show altitude changes over time

Two-Line Element Set

1 57236U 23094U 25351.65625935 -.00000632 00000-0 -31740-4 0 9990
2 57236 43.0033 103.6201 0001372 265.6570 94.4115 15.02531064134925
Epoch: Dec 17, 2025 • Age: 18 hours

Current Status

Altitude 559.1 km
Velocity 7.59 km/s
Sub-Earth Point 21.90°N, 17.57°E
Launch Date Jul 7, 2023
Age 2.4 years
Type internet

Technical Details

Classification Payload
Mass 305.00 kg
Dry Mass 290.00 kg
Total Mass 305.00 kg
Length 0.20 m
Diameter 2.80 m
Span 9.00 m
Shape Box + pan
Manufacturer SPXS
Bus Type Starlink
Phase Status In Orbit
Owner/State SPXS/US

Large Constellations

Loading constellations...